Weather History for KEWK - December, 2013

Change the Weather History Date:

Sunday, December 15, 2013

  Actual Average Record
Temperature  
Mean Temperature 25 °F -  
Max Temperature 59 °F 40 °F 66 °F (2006)
Min Temperature -9 °F 22 °F -9 °F (2013)
Degree Days  
Heating Degree Days 40    
Moisture  
Dew Point 20 °F    
Average Humidity 50    
Maximum Humidity 100    
Minimum Humidity 22    
Precipitation  
Precipitation 0.00 in - - ()
Sea Level Pressure  
Sea Level Pressure 30.11 in    
Wind  
Wind Speed 9 mph (SW)    
Max Wind Speed 21 mph    
Max Gust Speed 24 mph    
Visibility 10 miles    
Events      
Averages and records for this station are not official NWS values.
T = Trace of Precipitation, MM = Missing Value Source: NWS Daily Summary

Daily Weather History Graph

Daily Weather History Graph

Search for Another Location

Airport or City:

Trip Planner

Search our weather history database for the weather conditions in past years. The results will help you decide how hot, cold, wet, or windy it might be!

Date:

Astronomy

Dec. 15, 2013 Rise Set
Actual Time 7:38 AM CST 5:10 PM CST
Civil Twilight 7:08 AM CST 5:40 PM CST
Nautical Twilight 6:35 AM CST 6:13 PM CST
Astronomical Twilight 6:03 AM CST 6:45 PM CST
Moon 4:14 PM CST (12/15) 5:56 AM CST (12/15)
Length of Visible Light 10h 31m
Length of Day
9h 32m
Waxing Gibbous, 98% of the Moon is Illuminated
Dec 15
Waxing Gibbous
Dec 17
Full
Dec 25
Last Quarter
Jan 1
New
Jan 7
First Quarter

Hourly Weather History & Observations

Time (CST) Temp. Windchill Dew Point Humidity Pressure Visibility Wind Dir Wind Speed Gust Speed Precip Events Conditions
12:15 AM -5.8 °F -19.9 °F - N/A% 30.22 in 10.0 mi SW 6.9 mph - N/A   Clear
12:35 AM -9.4 °F -25.6 °F - N/A% 30.22 in 10.0 mi SSW 8.1 mph - N/A   Clear
12:55 AM -9.4 °F -22.7 °F - N/A% 30.21 in 10.0 mi SW 5.8 mph - N/A   Clear
1:15 AM 21.2 °F 14.9 °F 15.8 °F 80% 30.20 in 10.0 mi SSW 4.6 mph - N/A   Clear
1:35 AM 21.2 °F 14.9 °F 14.0 °F 74% 30.19 in 10.0 mi SSW 4.6 mph - N/A   Clear
1:55 AM -9.4 °F -24.3 °F - N/A% 30.20 in 10.0 mi SSW 6.9 mph - N/A   Clear
2:15 AM -9.4 °F -25.6 °F - N/A% 30.19 in 10.0 mi SSW 8.1 mph - N/A   Clear
2:35 AM -9.4 °F -26.8 °F - N/A% 30.19 in 10.0 mi SSW 9.2 mph - N/A   Clear
2:55 AM -9.4 °F -25.6 °F - N/A% 30.19 in 10.0 mi South 8.1 mph - N/A   Clear
3:15 AM -9.4 °F -24.3 °F - N/A% 30.19 in 10.0 mi South 6.9 mph - N/A   Clear
3:35 AM -9.4 °F -25.6 °F - N/A% 30.19 in 10.0 mi SSW 8.1 mph - N/A   Clear
3:55 AM -7.6 °F -23.4 °F - N/A% 30.18 in 10.0 mi SSW 8.1 mph - N/A   Clear
4:15 AM -7.6 °F -24.6 °F - N/A% 30.17 in 10.0 mi SSW 9.2 mph - N/A   Clear
4:35 AM -7.6 °F -24.6 °F - N/A% 30.16 in 10.0 mi SSW 9.2 mph - N/A   Clear
4:55 AM -7.6 °F -23.4 °F - N/A% 30.17 in 10.0 mi SSW 8.1 mph - N/A   Clear
5:15 AM -7.6 °F -23.4 °F - N/A% 30.16 in 10.0 mi SSW 8.1 mph - N/A   Clear
5:35 AM -7.6 °F -22.1 °F - N/A% 30.16 in 10.0 mi SW 6.9 mph - N/A   Clear
5:55 AM -9.4 °F -25.6 °F - N/A% 30.16 in 10.0 mi SSW 8.1 mph - N/A   Clear
6:15 AM -7.6 °F -24.6 °F - N/A% 30.15 in 10.0 mi SSW 9.2 mph - N/A   Clear
6:35 AM -5.8 °F -22.4 °F - N/A% 30.15 in 10.0 mi SSW 9.2 mph - N/A   Clear
6:55 AM 3.2 °F -12.2 °F - N/A% 30.15 in 10.0 mi SW 10.4 mph - N/A   Clear
7:15 AM 8.6 °F -5.5 °F - N/A% 30.14 in 10.0 mi SW 10.4 mph - N/A   Clear
7:35 AM 10.4 °F -2.4 °F - N/A% 30.15 in 10.0 mi SW 9.2 mph - N/A   Clear
7:55 AM 10.4 °F -2.4 °F - N/A% 30.15 in 10.0 mi SW 9.2 mph - N/A   Clear
8:15 AM -7.6 °F -24.6 °F - N/A% 30.15 in 10.0 mi SW 9.2 mph - N/A   Clear
8:35 AM -5.8 °F -23.4 °F - N/A% 30.15 in 10.0 mi SW 10.4 mph - N/A   Clear
8:55 AM -2.2 °F -18.0 °F - N/A% 30.15 in 10.0 mi WSW 9.2 mph - N/A   Clear
9:15 AM -0.4 °F -16.7 °F - N/A% 30.15 in 10.0 mi WSW 10.4 mph - N/A   Clear
9:35 AM 1.4 °F -15.3 °F - N/A% 30.15 in 10.0 mi WSW 11.5 mph - N/A   Clear
9:55 AM 6.8 °F -8.6 °F - N/A% 30.15 in 10.0 mi WSW 11.5 mph - N/A   Clear
10:15 AM 8.6 °F -7.7 °F - N/A% 30.15 in 10.0 mi WSW 13.8 mph - N/A   Clear
10:35 AM 12.2 °F -3.7 °F - N/A% 30.15 in 10.0 mi WSW 15.0 mph - N/A   Clear
10:55 AM 15.8 °F 3.4 °F - N/A% 30.14 in 10.0 mi West 10.4 mph - N/A   Clear
11:15 AM 24.8 °F 14.0 °F 24.8 °F 100% 30.14 in 10.0 mi West 11.5 mph - N/A   Clear
11:35 AM 26.6 °F 16.2 °F 24.8 °F 93% 30.13 in 10.0 mi West 11.5 mph - N/A   Clear
11:55 AM 50.0 °F - 24.8 °F 37% 30.12 in 10.0 mi West 17.3 mph - N/A   Clear
12:15 PM 53.6 °F - 21.2 °F 28% 30.11 in 10.0 mi West 17.3 mph 23.0 mph N/A   Clear
12:35 PM 55.4 °F - 21.2 °F 26% 30.10 in 10.0 mi West 17.3 mph - N/A   Clear
12:55 PM 55.4 °F - 21.2 °F 26% 30.09 in 10.0 mi West 16.1 mph - N/A   Clear
1:15 PM 57.2 °F - 21.2 °F 25% 30.07 in 10.0 mi WSW 19.6 mph - N/A   Clear
1:35 PM 57.2 °F - 21.2 °F 25% 30.06 in 10.0 mi West 20.7 mph - N/A   Clear
1:55 PM 57.2 °F - 21.2 °F 25% 30.06 in 10.0 mi WSW 18.4 mph - N/A   Clear
2:15 PM 57.2 °F - 21.2 °F 25% 30.07 in 10.0 mi West 18.4 mph - N/A   Clear
2:35 PM 59.0 °F - 21.2 °F 23% 30.06 in 10.0 mi WSW 20.7 mph 24.2 mph N/A   Clear
2:55 PM 59.0 °F - 21.2 °F 23% 30.06 in 10.0 mi WSW 19.6 mph 24.2 mph N/A   Clear
3:15 PM 59.0 °F - 19.4 °F 22% 30.05 in 10.0 mi WSW 19.6 mph - N/A   Clear
3:35 PM 59.0 °F - 21.2 °F 23% 30.04 in 10.0 mi WSW 17.3 mph 23.0 mph N/A   Clear
3:55 PM 57.2 °F - 19.4 °F 23% 30.05 in 10.0 mi West 11.5 mph - N/A   Clear
4:15 PM 57.2 °F - 19.4 °F 23% 30.05 in 10.0 mi WSW 11.5 mph - N/A   Clear
4:35 PM 55.4 °F - 19.4 °F 25% 30.04 in 10.0 mi WSW 11.5 mph - N/A   Clear
4:55 PM 53.6 °F - 19.4 °F 26% 30.04 in 10.0 mi WSW 8.1 mph - N/A   Clear
5:15 PM 51.8 °F - 19.4 °F 28% 30.04 in 10.0 mi WSW 8.1 mph - N/A   Clear
5:35 PM 51.8 °F - 19.4 °F 28% 30.04 in 10.0 mi WSW 6.9 mph - N/A   Clear
5:55 PM 48.2 °F - 19.4 °F 32% 30.04 in 10.0 mi SW 6.9 mph - N/A   Clear
6:15 PM 46.4 °F 42.4 °F 17.6 °F 32% 30.04 in 10.0 mi SW 8.1 mph - N/A   Clear
6:35 PM 46.4 °F 41.9 °F 19.4 °F 34% 30.04 in 10.0 mi SW 9.2 mph - N/A   Clear
6:55 PM 23.0 °F 13.9 °F 19.4 °F 86% 30.04 in 10.0 mi SW 8.1 mph - N/A   Clear
7:15 PM 21.2 °F 11.7 °F 19.4 °F 93% 30.05 in 10.0 mi SW 8.1 mph - N/A   Clear
7:35 PM 19.4 °F 9.5 °F 19.4 °F 100% 30.05 in 10.0 mi SW 8.1 mph - N/A   Clear
7:55 PM 24.8 °F 15.3 °F 19.4 °F 80% 30.06 in 10.0 mi SW 9.2 mph - N/A   Clear
8:15 PM 35.6 °F 28.6 °F 19.4 °F 52% 30.06 in 10.0 mi SW 9.2 mph - N/A   Clear
8:35 PM 17.6 °F 5.7 °F 17.6 °F 100% 30.06 in 10.0 mi SW 10.4 mph - N/A   Clear
8:55 PM 15.8 °F 3.4 °F 15.8 °F 100% 30.06 in 10.0 mi SW 10.4 mph - N/A   Clear
9:15 PM 15.8 °F 3.4 °F 15.8 °F 100% 30.06 in 10.0 mi SW 10.4 mph - N/A   Clear
9:35 PM 14.0 °F 2.0 °F 14.0 °F 100% 30.05 in 10.0 mi SW 9.2 mph - N/A   Clear
9:55 PM 10.4 °F -1.5 °F - N/A% 30.05 in 10.0 mi SW 8.1 mph - N/A   Clear
10:15 PM 10.4 °F -2.4 °F - N/A% 30.05 in 10.0 mi SW 9.2 mph - N/A   Clear
10:35 PM 8.6 °F -4.7 °F - N/A% 30.05 in 10.0 mi SW 9.2 mph - N/A   Clear
10:55 PM 8.6 °F -3.7 °F - N/A% 30.05 in 10.0 mi SW 8.1 mph - N/A   Clear
11:15 PM 8.6 °F -2.6 °F - N/A% 30.05 in 10.0 mi WSW 6.9 mph - N/A   Clear
11:35 PM 8.6 °F -4.7 °F - N/A% 30.05 in 10.0 mi WSW 9.2 mph - N/A   Clear
11:55 PM 8.6 °F -3.7 °F - N/A% 30.05 in 10.0 mi WSW 8.1 mph - N/A   Clear